Guerneville, CA

12:02 PM PST on February 13, 2016 (GMT -0800)
Stumptown Brewery | | Change Station
CLOSE
Current Station
Personal Weather Station
Location: Guerneville, CA
Elevation: 55 ft
Nearby Weather Stations

Elev 55 ft 38.51 °N, 122.98 °W | Updated 21 seconds ago

Clear
Clear
68.2 °F
Feels Like 68.2 °F
N
0.0
Wind Variable Wind from SSW
Gusts 1.0 mph

Today
High -- | Low -- °F
--% Chance of Precip.
Yesterday
High -- | Low -- °F
Precip. -- in
Pressure 30.25 in
Visibility 10.0 miles
Clouds Clear
Dew Point 58 °F
Humidity 69%
Rainfall 0.00 in
Snow Depth Not available.
7:05 AM 5:47 PM
Waxing Crescent, 33% visible
METAR KSTS 131953Z 00000KT 10SM CLR 19/11 A3027 RMK AO2 SLP244 T01890106
Pressure 30.25 in
Visibility 10.0 miles
Clouds Clear
Dew Point 58 °F
Humidity 69%
Rainfall 0.00 in
Snow Depth Not available.
7:05 AM 5:47 PM
Waxing Crescent, 33% visible
METAR KSTS 131953Z 00000KT 10SM CLR 19/11 A3027 RMK AO2 SLP244 T01890106

10-Day Weather Forecast

Almanac

Astronomy

Feb. 13, 2016 Rise Set
Actual Time
Civil Twilight
Nautical Twilight
Astronomical Twilight
Moon
Length of Visible Light
Length of Day
Tomorrow will be .
, % of the Moon is Illuminated

Today's Extremes

State Highs State Lows

Community

WunderPhotos

Upload Photos

1,892,653 photos uploaded!

WunderBlog® & News

Nearby

Air Quality

  Air Quality AQ Index Pollutant
Not available.

Snow Depth

Station Depth Elevation

Earthquake Activity

City Distance Mag. Time & Date
Minimum magnitude displayed is 2.5.

Coastal Water Temperatures

Place Temperature

Stations

Nearby Weather Stations

Station Location Temp. Windchill Dew Point Humidity Wind Precip. Elev Updated Type
                   

Watches & Warnings

There are currently no watches in effect.